SL-8 R/B

Satellite information

Favourite Embed

Satellite Type and Status

ROCKET BODYIN ORBIT

Key statistics

Satellite SL-8 R/B at a glance.

Uptime

18112

Days in orbit

Revolutions

≈ 13.7

Per day

Orbit

LEO

Low Earth Orbit

Inclination

83.0

Latest

Satellite identification and parameters

Extended collection of information and parameters for SL-8 R/B.

Object identification

Identified? True

Debris? False

Object name: SL-8 R/B

International designator: 1976-011B

Object number (NORAD): 8646

Object ID (CCSDS): 8646

Country: COMMONWEALTH OF INDEPENDENT STATES (CIS)

Current information (Y/N): Y

RCS size: LARGE

Orbital parameters

Period: 104.8 minutes

Inclination: 82.9664 deg

SMA: 7363.201 km

Apoapsis: 988.719 km

Periapsis: 981.414 km

RAAN: 281.7249 deg

Eccentricy: 0.00049603

Argument of periapsis: 202.7724 deg

Mean anomaly: 221.0418 deg

Mean motion: 13.74050662 rev/day

Mean motion (dot): 0.0000017 rev/day2

B* drag term: 0.00016472521 1/REarth

Two-line elements (TLE)

Creation date: Sept. 4, 2025, 10:13 a.m.

Reference frame: TEME

Reference center: EARTH

Epoch: Sept. 4, 2025, 4:21 a.m. UTC

TLE line 0: 0 SL-8 R/B

TLE line 1: 1 08646U 76011B 25247.18185005 .00000170 00000-0 16473-3 0 9999

TLE line 2: 2 08646 82.9664 281.7249 0004960 202.7724 221.0418 13.74050662485444

Live tracking on map

Real-time ground track for satellite SL-8 R/B.

In-orbit conjunctions

A list of the most updated potential collisions computed for object SL-8 R/B.

Target Orbit TCA Probability of collision Miss distance Type
SL-8 DEB LEO 2025-03-15 22:30:50 0.0001007676 397.0 (m) DEBRIS
SL-8 R/B LEO 2024-09-12 21:10:08 0.0001020523 335.0 (m) ROCKET BODY

Associated space launch

The first soviet navigation system called Tsiklon consisted of Zaliv satellites in low earth orbit.

SL-8 R/B was lifted into orbit during the mission ‘Kosmos-3M | Zaliv 20’, on board a Kosmos-3M space rocket.

The launch took place on Feb. 3, 1976, 8:16 a.m. from 132/1 (132L).

For more information about the launch, click the button.

Launch to space Kosmos-3M | Zaliv 20
Kosmos-3M | Zaliv 20

Agency: N/A

Status: Launch Successful

Launch date: Feb. 3, 1976, 8:16 a.m. UTC

Rocket: Kosmos-3M

Launch pad: 132/1 (132L)

Location: Plesetsk Cosmodrome, Russian Federation

...

Latest news about this satellite

There are no fresh news available about this satellite. Check back as we update our databases every day.


Newsletter sign-up

Weekly statistics, charts and insights to help you stay on top of the space industry.